Flag for Cyprus Weather past 2 weeks in Larnaca, Cyprus

Now
88 °F

Passing clouds.


Feels Like: 90 °F
Forecast: 80 / 94 °F
Wind: 17 mph from South

Location: Larnaca Airport

Current Time: Aug 20, 2014 at 12:23:46 PM

Latest Report: Aug 20, 2014 at 12:00 PM


Visibility: N/A

Pressure: 29.89 "Hg

Humidity: 49%

Dew point: 66 °F

Location of LarnacaLocation

Historic Weather in Larnaca — Graph

°F

Larnaca temperature yesterday

Maximum temperature yesterday: 90 °F (at 2:00 PM)
Minimum temperature yesterday: 79 °F (at 2:00 AM)
Average temperature yesterday: 83 °F

Past Weeks' High & Low Weather Summary

 TemperatureHumidityPressure
High93 °F (Aug 12, 3:30 PM)100% (Aug 13, 3:00 AM)29.89 "Hg (Aug 13, 3:00 AM)
Low72 °F (Aug 8, 6:00 AM)36% (Aug 12, 2:00 PM)29.53 "Hg (Aug 5, 6:00 PM)
Average83 °F74%29.70 "Hg
* Reported Aug 5 11:00 AM — Aug 20 11:30 AM, Larnaca, Weather by CustomWeather, © 2014

Note: Actual official high and low records may vary slightly from our data, if they occured in-between our weather recording intervals... More about our weather records

Advertising

Larnaca weather history for previous 24 hours

 ConditionsComfort  
Time TempWeatherWind HumidityBarometerVisibility
11:30 AM
Aug 20
88 °FPassing clouds.18 mph49%29.89 "HgN/A
11:00 AM88 °FPassing clouds.16 mph55%29.89 "HgN/A
10:30 AM88 °FPassing clouds.15 mph55%29.89 "HgN/A
10:00 AM86 °FPassing clouds.13 mph59%29.89 "HgN/A
9:30 AM86 °FPassing clouds.9 mph59%29.89 "HgN/A
9:00 AM84 °FPassing clouds.10 mph62%29.89 "HgN/A
8:30 AM84 °FPassing clouds.8 mph58%29.89 "HgN/A
8:00 AM82 °FPassing clouds.10 mph62%29.89 "HgN/A
7:30 AM81 °FPassing clouds.7 mph66%29.89 "HgN/A
7:00 AM77 °FPassing clouds.5 mph79%29.89 "HgN/A
6:30 AM75 °FPassing clouds.3 mph78%29.86 "HgN/A
6:00 AM75 °FPassing clouds.3 mph78%29.86 "HgN/A
5:30 AM75 °FPassing clouds.5 mph78%29.86 "HgN/A
5:00 AM75 °FPassing clouds.2 mph83%29.86 "HgN/A
4:30 AM75 °FPassing clouds.2 mph78%29.86 "HgN/A
4:00 AM75 °FPassing clouds.1 mph83%29.83 "HgN/A
3:30 AM77 °FPassing clouds.2 mph79%29.83 "HgN/A
3:00 AM77 °FPassing clouds.6 mph79%29.83 "HgN/A
2:30 AM77 °FPassing clouds.6 mph79%29.83 "HgN/A
2:00 AM77 °FPassing clouds.6 mph79%29.83 "HgN/A
1:30 AM79 °FPassing clouds.7 mph79%29.83 "HgN/A
1:00 AM79 °FPassing clouds.7 mph79%29.86 "HgN/A
12:30 AM79 °FPassing clouds.8 mph79%29.86 "HgN/A
12:00 AM79 °FPassing clouds.10 mph79%29.86 "HgN/A
11:30 PM
Aug 19
81 °FPassing clouds.12 mph74%29.86 "HgN/A
11:00 PM81 °FPassing clouds.14 mph74%29.83 "HgN/A
10:30 PM81 °FPassing clouds.15 mph74%29.83 "HgN/A
10:00 PM81 °FPassing clouds.16 mph74%29.83 "HgN/A
9:30 PM81 °FPassing clouds.16 mph74%29.83 "HgN/A
9:00 PM81 °FPassing clouds.17 mph74%29.83 "HgN/A
8:30 PM81 °FPassing clouds.18 mph70%29.80 "HgN/A
8:00 PM82 °FScattered clouds.20 mph70%29.80 "HgN/A
7:30 PM82 °FScattered clouds.20 mph70%29.80 "HgN/A
7:00 PM82 °FScattered clouds.20 mph66%29.77 "HgN/A
6:30 PM84 °FScattered clouds.22 mph62%29.77 "HgN/A
6:00 PM84 °FScattered clouds.22 mph62%29.77 "HgN/A
5:30 PM84 °FPassing clouds.21 mph66%29.77 "HgN/A
5:00 PM86 °FPassing clouds.22 mph62%29.77 "HgN/A
4:30 PM88 °FPassing clouds.22 mph59%29.77 "HgN/A
4:00 PM88 °FPassing clouds.22 mph55%29.77 "HgN/A
3:30 PM88 °FPassing clouds.23 mph55%29.77 "HgN/A
3:00 PM88 °FPassing clouds.24 mph55%29.77 "HgN/A
2:30 PM90 °FPassing clouds.22 mph55%29.77 "HgN/A
2:00 PM90 °FPassing clouds.20 mph55%29.77 "HgN/A
1:30 PM88 °FPassing clouds.20 mph55%29.77 "HgN/A
1:00 PM88 °FPassing clouds.20 mph55%29.77 "HgN/A
12:30 PM88 °FPassing clouds.17 mph49%29.77 "HgN/A
12:00 PM88 °FPassing clouds.17 mph55%29.77 "HgN/A
Weather by CustomWeather, © 2014

See weather overviewHow to use our weather pages